Phoenix
1 45258U 98067RB 21077.47530856 .00008955 00000-0 13907-3 0 9999
2 45258 51.6403 63.5611 0004727 281.9113 78.1347 15.54774871 61042
AztechSat-1
1 45261U 98067RE 21077.74720716 .00024313 00000-0 29751-3 0 9999
2 45261 51.6387 56.3833 0005182 308.7421 51.3108 15.60236562 61189
QARMAN
1 45263U 98067RG 21077.35973840 .00020826 00000-0 27933-3 0 9991
2 45263 51.6398 61.2984 0005237 300.4051 59.6423 15.57903475 61129
Quetzal 1
1 45598U 98067RL 21077.36720605 .00018710 00000-0 26607-3 0 9998
2 45598 51.6406 64.3613 0003004 35.3886 324.7305 15.56411238 50351
BY70-2
1 45857U 20042B 21077.79204220 .00001397 00000-0 20645-3 0 9990
2 45857 97.9891 154.4824 0012545 141.7698 218.4393 14.76772912 38169
UPMSat 2
1 46276U 20061E 21077.75111218 .00000680 00000-0 38465-4 0 9991
2 46276 97.4396 153.3294 0001202 34.4472 325.6838 15.16327652 29791
AmicalSat
1 46287U 20061R 21077.74559647 .00001094 00000-0 70631-4 0 9995
2 46287 97.4949 152.9796 0004052 65.7817 294.3835 15.10295366 29659
SALSAT
1 46495U 20068K 21077.61143549 .00000457 00000-0 38073-4 0 9995
2 46495 97.6876 15.6903 0018070 26.2219 333.9918 15.03383481 25688
BY70-3
1 46839U 20079N 21077.74472894 .00004043 00000-0 12898-3 0 9992
2 46839 97.2476 153.4101 0007531 159.8174 319.1338 15.33044056 20307
SPOC
1 46921U 98067RR 21077.43646291 .00008641 00000-0 14547-3 0 9997
2 46921 51.6425 69.3255 0002885 88.3307 271.8013 15.52571816 20712
Bobcat-1
1 46922U 98067RS 21077.52849045 .00012104 00000-0 19424-3 0 9998
2 46922 51.6432 68.4473 0002646 87.6668 272.4625 15.53483582 20696
Neutron-1
1 46923U 98067RT 21077.44492541 .00008751 00000-0 14781-3 0 9999
2 46923 51.6424 69.3803 0002689 98.8202 261.3093 15.52458369 20746
CAPE 3
1 47309U 21002A 21077.77266213 .00000929 00000-0 54253-4 0 9992
2 47309 60.6831 270.8945 0025786 346.6504 13.3896 15.20448013 9096
OBJECT B
1 47310U 21002B 21077.36350022 .00002327 00000-0 11585-3 0 9995
2 47310 60.6814 272.2791 0024155 349.5912 10.4670 15.20888529 9029
AO-109
1 47311U 21002C 21077.07976677 .00001739 00000-0 88616-4 0 9990
2 47311 60.6848 273.1661 0021469 351.7688 8.3043 15.21353565 8963
OBJECT D
1 47312U 21002D 21077.72383022 .00007631 00000-0 34016-3 0 9990
2 47312 60.6874 270.6450 0021086 354.1001 5.9834 15.22106985 9079
OBJECT E
1 47313U 21002E 21077.71440272 .00002000 00000-0 98213-4 0 9996
2 47313 60.6855 270.5895 0021798 340.4404 19.5844 15.22028853 9075
MiTEE 1
1 47314U 21002F 21077.75712285 .00001940 00000-0 94206-4 0 9997
2 47314 60.6835 270.2266 0019609 335.3012 24.7134 15.22581868 9091
OBJECT G
1 47315U 21002G 21077.21963994 .00001827 00000-0 88868-4 0 9995
2 47315 60.6824 272.1313 0017159 336.7917 23.2394 15.22834556 9010
OBJECT J
1 47317U 21002J 21077.24389780 .00000993 00000-0 57035-4 0 9990
2 47317 60.6823 272.8434 0025580 345.5984 14.4369 15.20506905 8982
OBJECT K
1 47318U 21002K 21077.24273052 .00001009 00000-0 57738-4 0 9994
2 47318 60.6822 272.8361 0025506 345.3924 14.6422 15.20535362 8982
ExoCube 2
1 47319U 21002L 21077.75115162 .00001190 00000-0 65103-4 0 9994
2 47319 60.6814 270.7723 0023251 350.9322 9.1341 15.20981558 9030
OBJECT M
1 47320U 21002M 21077.73901936 .00001982 00000-0 99395-4 0 9995
2 47320 60.6833 270.7095 0022159 351.4463 8.6242 15.21322103 9112
OBJECT N
1 47345U 21002N 21077.71438185 .00002107 00000-0 10285-3 0 9991
2 47345 60.6853 270.5893 0021790 340.5088 19.5163 15.22026668 8803
UVSQ-SAT
1 47438U 21006AB 21077.11653942 .00001174 00000-0 70196-4 0 9993
2 47438 97.4985 139.9359 0014118 58.0509 302.2093 15.12925068 8243
YUSAT 1
1 47439U 21006AC 21077.71282999 .00001148 00000-0 68795-4 0 9993
2 47439 97.4985 140.5208 0013945 56.4223 303.8337 15.12897244 8339
SOMP 2b
1 47445U 21006AJ 21077.71692848 .00001085 00000-0 65424-4 0 9994
2 47445 97.4957 140.4918 0013766 59.6735 300.5856 15.12777174 8335
IDEASSat
1 47458U 21006AX 21077.39088381 .00001176 00000-0 70871-4 0 9996
2 47458 97.5048 140.2292 0012871 59.5228 300.7273 15.12640934 8288
/EX
1
0
18 Mar '21
The following satellite has been added BACK to this week's AMSAT-NA TLE
Distribution:
Delfi-N3xt - NORAD Cat ID 39428.
This satellite has come back to life after seven years of silence. (Remember
AO-07 coming back after 21 years of silence?)
Thanks to AMSAT News Service Bulletin 073 (Mark Johns, K0JM) for this very
good news.
The following satellite has decayed from orbit and has been removed from
this week's AMSAT-NA TLE Distribution:
Delphini - NORAD Cat ID 44030 (Decayed 3-14-2021 per Space-Track).
(I am pretty sure it won't come back!)
Ray Hoad
WA5QGD
AMSAT-NA Orbital Elements Manager
1
0
Renewal of Orbital Data Request for TLE Redistribution by AMSAT NA for 2020-2021 Completed
by ray.hoad@mypbmail.com 12 Mar '21
by ray.hoad@mypbmail.com 12 Mar '21
12 Mar '21
Get the right year Ray!
I am pleased to announce that AMSAT-NA's request to re-distribute TLE
elements from Space-Track website has been approved for the period April 1,
2021 to April 1, 2022. Our ODR (Orbital Data Request) to distribute the
Space-Track TLEs was approved by Air Force 18 SPCS, Vandenburg AFB on March
12, 2021.
Thanks to Air Force 18 SPCS, Perry Klein (W3PK), Paul Stoetzer (W3PK) and
Joe Fitzgerald (KM1P) for their help in this yearly process.
We are "good to go" for another year.
Ray Hoad
WA5QGD
AMSAT-NA Orbital Elements Manager
1
0
Renewal of Orbital Data Request for TLE Redistribution by AMSAT NA for 2019-2020 Completed
by ray.hoad@mypbmail.com 12 Mar '21
by ray.hoad@mypbmail.com 12 Mar '21
12 Mar '21
I am pleased to announce that AMSAT-NA's request to re-distribute TLE
elements from Space-Track website has been approved for the period April 1,
2021 to April 1, 2022. Our ODR (Orbital Data Request) to distribute the
Space-Track TLEs was approved by Air Force 18 SPCS, Vandenburg AFB on March
12, 2021.
Thanks to Air Force 18 SPCS, Perry Klein (W3PK), Paul Stoetzer (W3PK) and
Joe Fitzgerald (KM1P) for their help in this yearly process.
We are "good to go" for another year.
Ray Hoad
WA5QGD
AMSAT-NA Orbital Elements Manager
1
0
SB KEPS @ AMSAT $ORB21070.N
2Line Orbital Elements 21070.AMSAT
HR AMSAT ORBITAL ELEMENTS FOR AMATEUR SATELLITES IN NASA FORMAT
FROM WA5QGD FORT WORTH,TX March 11, 2021
BID: ORB21070.N
DECODE 2-LINE ELSETS WITH THE FOLLOWING KEY:
1 AAAAAU 00 0 0 BBBBB.BBBBBBBB .CCCCCCCC 00000-0 00000-0 0 DDDZ
2 AAAAA EEE.EEEE FFF.FFFF GGGGGGG HHH.HHHH III.IIII JJ.JJJJJJJJKKKKKZ
KEY: A-CATALOGNUM B-EPOCHTIME C-DECAY D-ELSETNUM E-INCLINATION F-RAAN
G-ECCENTRICITY H-ARGPERIGEE I-MNANOM J-MNMOTION K-ORBITNUM Z-CHECKSUM
TO ALL RADIO AMATEURS BT
AO-07
1 07530U 74089B 21070.82562568 -.00000046 00000-0 -35987-5 0 9994
2 07530 101.8432 45.4738 0012012 208.6484 266.7361 12.53647742119738
UO-11
1 14781U 84021B 21070.50994145 .00000134 00000-0 22443-4 0 9990
2 14781 97.5924 75.1789 0009586 50.5143 309.6918 14.83256488971419
LO-19
1 20442U 90005G 21070.80307205 -.00000007 00000-0 13818-4 0 9994
2 20442 98.7296 25.4438 0012893 88.3267 271.9393 14.32978632626900
